Location: Czernica
(51.0462°N, 17.2458°E)
Time: 07:00:05
(UTC+02:00)

ISS - Visible Passes

Search period start: 20 September 2018 00:00
Search period end: 30 September 2018 00:00
Orbit: 402 x 408 km, 51.6° (Epoch: 20 September)

Date Brightness Start Highest point End Pass type
(mag) Time Alt. Az. Time Alt. Az. Time Alt. Az.
22 Sep -1.8 20:27:25 10° SSW 20:28:33 16° S 20:28:33 16° S visible
23 Sep -1.8 19:36:33 10° SSE 19:38:09 13° SE 19:39:12 12° ESE visible
23 Sep -1.5 21:10:53 10° SW 21:11:53 18° SW 21:11:53 18° SW visible
24 Sep -3.1 20:19:08 10° SW 20:22:10 35° SSE 20:22:20 35° SE visible
25 Sep -2.4 19:27:35 10° SSW 19:30:17 24° SE 19:32:36 12° E visible
25 Sep -2.5 21:03:10 10° WSW 21:05:17 36° WSW 21:05:17 36° WSW visible
26 Sep -3.7 20:11:12 10° WSW 20:14:27 58° SSE 20:15:26 38° E visible
26 Sep -0.7 21:47:38 10° W 21:48:06 13° W 21:48:06 13° W visible
27 Sep -3.2 19:19:21 10° SW 19:22:28 40° SSE 19:25:29 11° E visible
27 Sep -3.1 20:55:33 10° W 20:58:09 52° W 20:58:09 52° W visible
28 Sep -3.9 20:03:28 10° WSW 20:06:47 84° SSE 20:08:07 33° E visible
28 Sep -0.9 21:40:01 10° W 21:40:47 16° W 21:40:47 16° W visible
29 Sep -3.7 19:11:27 10° WSW 19:14:43 65° SSE 19:18:00 10° E visible
29 Sep -3.3 20:47:56 10° W 20:50:42 58° WNW 20:50:42 58° WNW visible
